User: anonymous   Login
Location: Hopkins Observatory
(42.6965°N, 73.1843°W)
Time: 05:12:54
(UTC-04:00)
Language:

UOSAT-12 - Orbit

View from above orbital plane
View from above orbital plane
View from above satellite
View from above satellite

Ground track
Ground track

The orbit data is extracted from the following two-line orbital elements,

1 25693U 99021A   16242.75834219 -.00000037  00000-0  13546-4 0  9994
2 25693  64.5564 303.8195 0005039 306.5954  53.4687 14.80672857937016
Epoch (UTC): 29 August 2016 18:12:00
Eccentricity: 0.0005039
inclination: 64.5564°
perigee height: 623 km
apogee height: 631 km
right ascension of ascending node: 303.8195°
argument of perigee: 306.5954°
revolutions per day: 14.80672857
mean anomaly at epoch: 53.4687°
orbit number at epoch: 93701

The dashed part of the orbit path shows where the satellite is in the earth's shadow,  

DLR